WASEDA-SAT3

Last updated on Oct. 7, 2018, midnight UTC

1 41933U 98067KV  18279.05129440  .08880754  12487-4  45483-3 0  9995
2 41933  51.6134 107.1518 0008522 281.0761  78.9308 16.42208149 98545

Satellite is not in orbit.